User: anonymous   Login
Location: Unspecified
(0.0000°N, 0.0000°E)
Time: 04:13:40
(UTC+00:00)
Language:

SKYNET 4F - Orbit

View from above orbital plane
View from above orbital plane
View from above satellite
View from above satellite

Ground track
Ground track

The orbit data is extracted from the following two-line orbital elements,

1 26695U 01005B   18292.16301459 -.00000250 +00000-0 +00000-0 0  9993
2 26695 009.4142 033.3298 0002630 168.9109 210.0941 01.00271071064830
Epoch (UTC): 19 October 2018 03:54:44
Eccentricity: 0.0002630
inclination: 9.4142°
perigee height: 35775 km
apogee height: 35797 km
right ascension of ascending node: 33.3298°
argument of perigee: 168.9109°
revolutions per day: 1.00271071
mean anomaly at epoch: 210.0941°
orbit number at epoch: 6483

The dashed part of the orbit path shows where the satellite is in the earth's shadow,  

DLR